Location: Be Tobo
(6.6442°N, 10.6239°W)
Time: 01:34:42
(UTC+00:00)

SL-16 R/B - Pass Details

Date: 18 September 2020
Orbit: 842 x 848 km, 71.0° (Epoch: 21 October)

Event Time Altitude Azimuth Distance (km) Brightness Sun altitude
Rises 19:29:09 0° 343° (NNW) 3,388 5.6 -12.9°
Reaches altitude 10° 19:31:35 10° 343° (NNW) 2,453 4.9 -13.5°
Maximum altitude 19:37:13 85° 254° (WSW) 848 2.2 -14.9°
Drops below altitude 10° 19:42:52 10° 167° (SSE) 2,454 4.4 -16.3°
Sets 19:45:18 0° 166° (SSE) 3,389 5.2 -16.9°
